Location: Newark
(34.9500°N, 139.9667°E)
Time: 12:45:43
(UTC+00:00)

deb Explorer IX - Pass Details

Date: 15 December 2019
Orbit: 548 x 1101 km, 38.8° (Epoch: 17 January)

Event Time Altitude Azimuth Distance (km) Brightness Sun altitude
Rises 07:48:50 0° 281° (WNW) 3,244 ? -4.3°
Reaches altitude 10° 07:51:10 10° 285° (WNW) 2,400 ? -4.8°
Maximum altitude 07:56:53 63° 6° (N) 1,013 ? -5.8°
Drops below altitude 10° 08:03:32 10° 87° (E) 2,778 ? -7.1°
Enters shadow 08:04:40 - 89° (E) 3,174 ? -7.3°
